Back to catalog

EKRAN 2 DEB

AliveGEO
NORAD 11581·DEBRIS·🇷🇺 Russia

Launched Sep 20, 1977 from Baikonur Cosmodrome

Loading…

TLE

FreshSource: Space-Track

Epoch: Sep 14, 2026, 14:13 UTC

1 11581U 77092H   26257.59304109 -.00000260  00000-0  00000-0 0  9993
2 11581   3.9164 272.7926 0019245 270.9045 113.5277  1.00375189105268

Track EKRAN 2 DEB in real time with AllMySat

Download on the App Store